1579474856,2020-01-20 00:00,21.77,1012.59,1038.37,214,25.83,2.37,-26,1
1579474916,2020-01-20 00:01,21.98,1012.58,1038.36,214,25.81,2.49,-28,1
1579474976,2020-01-20 00:02,21.96,1012.61,1038.39,214,25.81,2.48,-26,1
1579475037,2020-01-20 00:03,22.18,1012.61,1038.39,214,25.82,2.62,-24,1
1579475097,2020-01-20 00:04,21.96,1012.61,1038.39,214,25.82,2.48,-27,1
1579475157,2020-01-20 00:05,22.04,1012.63,1038.41,214,25.81,2.53,-26,1
1579475217,2020-01-20 00:06,21.96,1012.64,1038.43,214,25.81,2.48,-27,1
1579475278,2020-01-20 00:07,21.98,1012.66,1038.44,214,25.81,2.49,-23,1
1579475338,2020-01-20 00:08,21.97,1012.67,1038.46,214,25.81,2.48,-25,1
1579475398,2020-01-20 00:09,21.75,1012.65,1038.43,214,25.80,2.33,-26,1
1579475458,2020-01-20 00:10,21.98,1012.65,1038.44,214,25.81,2.49,-27,1
1579475519,2020-01-20 00:11,21.98,1012.68,1038.46,214,25.80,2.48,-26,1
1579475579,2020-01-20 00:12,21.95,1012.67,1038.45,214,25.80,2.46,-27,1
1579475639,2020-01-20 00:13,21.95,1012.69,1038.48,214,25.80,2.46,-24,1
1579475699,2020-01-20 00:14,21.96,1012.70,1038.48,214,25.80,2.47,-26,1
1579475760,2020-01-20 00:16,21.96,1012.72,1038.50,214,25.80,2.47,-27,1
1579475820,2020-01-20 00:17,21.96,1012.72,1038.50,214,25.79,2.46,-25,1
1579475880,2020-01-20 00:18,21.99,1012.74,1038.52,214,25.80,2.49,-27,1
1579475941,2020-01-20 00:19,21.99,1012.74,1038.53,214,25.80,2.49,-27,1
1579476001,2020-01-20 00:20,21.96,1012.78,1038.56,214,25.80,2.47,-24,1
1579476061,2020-01-20 00:21,21.96,1012.77,1038.55,214,25.79,2.46,-27,1
1579476121,2020-01-20 00:22,21.94,1012.76,1038.55,214,25.80,2.45,-27,1
1579476182,2020-01-20 00:23,21.96,1012.78,1038.56,214,25.80,2.47,-26,1
1579476242,2020-01-20 00:24,21.96,1012.80,1038.58,214,25.79,2.46,-26,1
1579476302,2020-01-20 00:25,21.95,1012.79,1038.57,214,25.79,2.45,-26,1
1579476363,2020-01-20 00:26,21.75,1012.82,1038.60,214,25.80,2.33,-27,1
1579476423,2020-01-20 00:27,21.81,1012.83,1038.62,214,25.80,2.37,-27,1
1579476483,2020-01-20 00:28,21.97,1012.82,1038.61,214,25.80,2.47,-26,1
1579476543,2020-01-20 00:29,21.94,1012.86,1038.64,214,25.80,2.45,-25,1
1579476604,2020-01-20 00:30,21.95,1012.87,1038.65,214,25.80,2.46,-27,1
1579476664,2020-01-20 00:31,21.95,1012.87,1038.65,214,25.79,2.45,-23,1
1579476724,2020-01-20 00:32,21.45,1012.86,1038.65,214,25.80,2.14,-26,1
1579476784,2020-01-20 00:33,21.96,1012.90,1038.68,214,25.80,2.47,-27,1
1579476845,2020-01-20 00:34,21.95,1012.93,1038.71,214,25.80,2.46,-26,1
1579476905,2020-01-20 00:35,21.95,1012.91,1038.69,214,25.80,2.46,-25,1
1579476965,2020-01-20 00:36,21.94,1012.97,1038.75,214,25.80,2.45,-26,1
1579477025,2020-01-20 00:37,21.95,1012.95,1038.74,214,25.79,2.45,-27,1
1579477086,2020-01-20 00:38,21.95,1012.94,1038.72,214,25.79,2.45,-26,1
1579477146,2020-01-20 00:39,21.99,1013.00,1038.79,214,25.80,2.49,-27,1
1579477206,2020-01-20 00:40,21.95,1013.02,1038.81,214,25.80,2.46,-26,1
1579477267,2020-01-20 00:41,21.94,1013.04,1038.82,214,25.79,2.44,-26,1
1579477327,2020-01-20 00:42,21.93,1013.07,1038.85,214,25.79,2.44,-27,1
1579477387,2020-01-20 00:43,21.90,1013.08,1038.86,214,25.79,2.42,-27,1
1579477447,2020-01-20 00:44,21.92,1013.08,1038.87,214,25.79,2.43,-26,1
1579477508,2020-01-20 00:45,21.94,1013.08,1038.86,214,25.79,2.44,-27,1
1579477568,2020-01-20 00:46,21.94,1013.10,1038.88,214,25.80,2.45,-27,1
1579477628,2020-01-20 00:47,21.95,1013.12,1038.90,214,25.79,2.45,-25,1
1579477689,2020-01-20 00:48,21.94,1013.11,1038.90,214,25.79,2.44,-27,1
1579477749,2020-01-20 00:49,21.93,1013.11,1038.89,214,25.78,2.43,-26,1
1579477809,2020-01-20 00:50,21.94,1013.14,1038.92,214,25.79,2.44,-26,1
1579477869,2020-01-20 00:51,21.93,1013.10,1038.88,214,25.79,2.44,-27,1
1579477930,2020-01-20 00:52,21.93,1013.11,1038.90,214,25.79,2.44,-28,1
1579477990,2020-01-20 00:53,21.93,1013.12,1038.90,214,25.78,2.43,-26,1
1579478050,2020-01-20 00:54,21.81,1013.16,1038.94,214,25.79,2.36,-26,1
1579478111,2020-01-20 00:55,21.90,1013.16,1038.94,214,25.79,2.42,-27,1
1579478171,2020-01-20 00:56,22.03,1013.19,1038.97,214,25.79,2.50,-26,1
1579478231,2020-01-20 00:57,21.92,1013.21,1038.99,214,25.80,2.44,-25,1
1579478291,2020-01-20 00:58,21.94,1013.20,1038.98,214,25.79,2.44,-28,1
1579478352,2020-01-20 00:59,21.93,1013.25,1039.03,214,25.79,2.44,-26,1
1579478412,2020-01-20 01:00,21.90,1013.27,1039.05,214,25.79,2.42,-28,1
1579478472,2020-01-20 01:01,21.90,1013.28,1039.06,214,25.79,2.42,-23,1
1579478533,2020-01-20 01:02,21.90,1013.31,1039.10,214,25.79,2.42,-26,1
1579478593,2020-01-20 01:03,21.88,1013.30,1039.08,214,25.79,2.41,-27,1
1579478653,2020-01-20 01:04,21.88,1013.32,1039.10,214,25.79,2.41,-25,1
1579478713,2020-01-20 01:05,21.89,1013.34,1039.12,214,25.78,2.41,-28,1
1579478774,2020-01-20 01:06,21.68,1013.35,1039.13,214,25.78,2.27,-25,1
1579478834,2020-01-20 01:07,21.87,1013.35,1039.13,214,25.78,2.39,-21,1
1579478894,2020-01-20 01:08,21.88,1013.37,1039.16,214,25.79,2.41,-27,1
1579478954,2020-01-20 01:09,21.87,1013.37,1039.15,214,25.78,2.39,-26,1
1579479015,2020-01-20 01:10,21.88,1013.39,1039.17,214,25.79,2.41,-24,1
1579479075,2020-01-20 01:11,21.92,1013.38,1039.16,214,25.79,2.43,-26,1
1579479135,2020-01-20 01:12,21.89,1013.41,1039.19,214,25.79,2.42,-26,1
1579479196,2020-01-20 01:13,21.88,1013.41,1039.19,214,25.79,2.41,-26,1
1579479256,2020-01-20 01:14,21.90,1013.44,1039.22,214,25.79,2.42,-26,1
1579479316,2020-01-20 01:15,21.88,1013.45,1039.23,214,25.80,2.42,-27,1
1579479376,2020-01-20 01:16,21.89,1013.48,1039.27,214,25.80,2.42,-26,1
1579479437,2020-01-20 01:17,21.91,1013.49,1039.27,214,25.80,2.43,-25,1
1579479497,2020-01-20 01:18,21.90,1013.48,1039.27,214,25.80,2.43,-26,1
1579479557,2020-01-20 01:19,21.88,1013.51,1039.29,214,25.79,2.41,-27,1
1579479618,2020-01-20 01:20,21.88,1013.52,1039.31,214,25.79,2.41,-26,1
1579479678,2020-01-20 01:21,21.88,1013.54,1039.33,214,25.79,2.41,-26,1
1579479738,2020-01-20 01:22,21.88,1013.54,1039.32,214,25.80,2.42,-26,1
1579479798,2020-01-20 01:23,21.89,1013.55,1039.33,214,25.80,2.42,-26,1
1579479859,2020-01-20 01:24,21.89,1013.55,1039.33,214,25.80,2.42,-26,1
1579479919,2020-01-20 01:25,21.88,1013.57,1039.35,214,25.79,2.41,-26,1
1579479979,2020-01-20 01:26,21.88,1013.55,1039.33,214,25.78,2.40,-24,1
1579480039,2020-01-20 01:27,21.87,1013.56,1039.35,214,25.79,2.40,-25,1
1579480100,2020-01-20 01:28,21.98,1013.56,1039.34,214,25.78,2.46,-23,1
1579480160,2020-01-20 01:29,21.85,1013.59,1039.38,214,25.78,2.38,-27,1
1579480220,2020-01-20 01:30,21.88,1013.60,1039.38,214,25.78,2.40,-27,1
1579480281,2020-01-20 01:31,21.85,1013.63,1039.41,214,25.79,2.39,-23,1
1579480341,2020-01-20 01:32,21.87,1013.63,1039.41,214,25.77,2.38,-27,1
1579480401,2020-01-20 01:33,21.88,1013.65,1039.43,214,25.78,2.40,-26,1
1579480461,2020-01-20 01:34,21.54,1013.67,1039.45,214,25.79,2.19,-26,1
1579480522,2020-01-20 01:35,21.87,1013.69,1039.47,214,25.79,2.40,-26,1
1579480582,2020-01-20 01:36,21.88,1013.72,1039.50,214,25.79,2.41,-27,1
1579480642,2020-01-20 01:37,21.89,1013.75,1039.53,214,25.79,2.42,-25,1
1579480703,2020-01-20 01:38,21.88,1013.73,1039.51,214,25.78,2.40,-26,1
1579480763,2020-01-20 01:39,21.85,1013.78,1039.56,214,25.78,2.38,-26,1
1579480823,2020-01-20 01:40,21.88,1013.79,1039.58,214,25.79,2.41,-25,1
1579480883,2020-01-20 01:41,21.87,1013.80,1039.59,214,25.78,2.39,-26,1
1579480944,2020-01-20 01:42,21.87,1013.79,1039.58,214,25.78,2.39,-27,1
1579481004,2020-01-20 01:43,21.88,1013.80,1039.59,214,25.77,2.39,-26,1
1579481064,2020-01-20 01:44,21.88,1013.82,1039.61,214,25.78,2.40,-27,1
1579481124,2020-01-20 01:45,21.89,1013.81,1039.59,214,25.78,2.41,-26,1
1579481185,2020-01-20 01:46,21.88,1013.82,1039.60,214,25.77,2.39,-27,1
1579481245,2020-01-20 01:47,21.90,1013.81,1039.59,214,25.77,2.41,-27,1
1579481305,2020-01-20 01:48,21.85,1013.84,1039.62,214,25.78,2.38,-27,1
1579481366,2020-01-20 01:49,21.86,1013.84,1039.62,214,25.78,2.39,-24,1
1579481426,2020-01-20 01:50,21.87,1013.82,1039.61,214,25.77,2.38,-25,1
1579481486,2020-01-20 01:51,21.85,1013.86,1039.65,214,25.76,2.36,-25,1
1579481546,2020-01-20 01:52,21.85,1013.88,1039.66,214,25.77,2.37,-27,1
1579481607,2020-01-20 01:53,21.86,1013.88,1039.66,214,25.77,2.38,-23,1
1579481667,2020-01-20 01:54,21.79,1013.91,1039.69,214,25.77,2.34,-27,1
1579481727,2020-01-20 01:55,21.84,1013.91,1039.69,214,25.77,2.36,-27,1
1579481787,2020-01-20 01:56,21.85,1013.91,1039.69,214,25.77,2.37,-28,1
1579481848,2020-01-20 01:57,21.85,1013.90,1039.68,214,25.77,2.37,-24,1
1579481908,2020-01-20 01:58,22.12,1013.92,1039.71,214,25.76,2.54,-27,1
1579481968,2020-01-20 01:59,21.84,1013.96,1039.74,214,25.78,2.37,-26,1
1579482029,2020-01-20 02:00,21.86,1013.97,1039.75,214,25.78,2.39,-26,1
1579482089,2020-01-20 02:01,21.85,1013.99,1039.77,214,25.78,2.38,-26,1
1579482149,2020-01-20 02:02,21.84,1014.00,1039.78,214,25.78,2.37,-24,1
1579482209,2020-01-20 02:03,21.82,1013.97,1039.75,214,25.77,2.35,-27,1
1579482270,2020-01-20 02:04,21.84,1014.01,1039.79,214,25.78,2.37,-25,1
1579482330,2020-01-20 02:05,21.85,1014.00,1039.78,214,25.77,2.37,-27,1
1579482390,2020-01-20 02:06,21.85,1014.03,1039.81,214,25.77,2.37,-25,1
1579482451,2020-01-20 02:07,21.65,1014.01,1039.80,214,25.77,2.24,-27,1
1579482511,2020-01-20 02:08,21.83,1014.03,1039.81,214,25.77,2.36,-26,1
1579482571,2020-01-20 02:09,21.84,1014.02,1039.80,214,25.77,2.36,-26,1
1579482631,2020-01-20 02:10,21.82,1014.01,1039.80,214,25.77,2.35,-27,1
1579482692,2020-01-20 02:11,21.73,1014.03,1039.81,214,25.76,2.28,-25,1
1579482752,2020-01-20 02:12,21.85,1014.04,1039.82,214,25.77,2.37,-26,1
1579482812,2020-01-20 02:13,21.84,1014.05,1039.83,214,25.78,2.37,-24,1
1579482872,2020-01-20 02:14,21.84,1014.03,1039.81,214,25.77,2.36,-25,1
1579482933,2020-01-20 02:15,21.82,1014.05,1039.83,214,25.77,2.35,-26,1
1579482993,2020-01-20 02:16,21.79,1014.05,1039.83,214,25.76,2.33,-25,1
1579483053,2020-01-20 02:17,21.82,1014.05,1039.83,214,25.77,2.35,-26,1
1579483114,2020-01-20 02:18,21.82,1014.08,1039.87,214,25.77,2.35,-27,1
1579483174,2020-01-20 02:19,21.82,1014.09,1039.87,214,25.76,2.34,-25,1
1579483234,2020-01-20 02:20,21.80,1014.09,1039.87,214,25.74,2.32,-26,1
1579483295,2020-01-20 02:21,21.82,1014.09,1039.87,214,25.77,2.35,-27,1
1579483355,2020-01-20 02:22,21.82,1014.12,1039.90,214,25.77,2.35,-26,1
1579483415,2020-01-20 02:23,21.83,1014.14,1039.92,214,25.77,2.36,-25,1
1579483475,2020-01-20 02:24,22.02,1014.17,1039.95,214,25.78,2.49,-28,1
1579483536,2020-01-20 02:25,21.72,1014.16,1039.94,214,25.76,2.28,-27,1
1579483596,2020-01-20 02:26,21.80,1014.16,1039.94,214,25.78,2.35,-26,1
1579483656,2020-01-20 02:27,21.84,1014.17,1039.95,214,25.77,2.36,-28,1
1579483717,2020-01-20 02:28,21.78,1014.19,1039.97,214,25.77,2.33,-26,1
1579483777,2020-01-20 02:29,21.79,1014.19,1039.97,214,25.77,2.34,-27,1
1579483837,2020-01-20 02:30,21.79,1014.16,1039.94,214,25.77,2.34,-26,1
1579483897,2020-01-20 02:31,21.80,1014.17,1039.95,214,25.77,2.34,-25,1
1579483957,2020-01-20 02:32,21.79,1014.16,1039.94,214,25.77,2.34,-26,1
1579484017,2020-01-20 02:33,21.79,1014.17,1039.96,214,25.77,2.34,-26,1
1579484077,2020-01-20 02:34,21.82,1014.13,1039.91,214,25.77,2.35,-26,1
1579484137,2020-01-20 02:35,21.79,1014.14,1039.92,214,25.77,2.34,-23,1
1579484197,2020-01-20 02:36,21.79,1014.16,1039.94,214,25.77,2.34,-25,1
1579484321,2020-01-20 02:38,21.78,1014.13,1039.91,214,25.77,2.33,-26,1
1579484381,2020-01-20 02:39,21.77,1014.15,1039.93,214,25.77,2.32,-27,1
1579484441,2020-01-20 02:40,21.76,1014.17,1039.95,214,25.78,2.32,-25,1
1579484501,2020-01-20 02:41,21.78,1014.17,1039.95,214,25.77,2.33,-24,1
1579484561,2020-01-20 02:42,21.78,1014.15,1039.94,214,25.77,2.33,-26,1
1579484622,2020-01-20 02:43,21.78,1014.17,1039.96,214,25.77,2.33,-26,1
1579484682,2020-01-20 02:44,21.57,1014.19,1039.98,214,25.78,2.20,-27,1
1579484742,2020-01-20 02:45,21.78,1014.21,1040.00,214,25.77,2.33,-27,1
1579484803,2020-01-20 02:46,21.76,1014.23,1040.01,214,25.76,2.31,-26,1
1579484863,2020-01-20 02:47,21.77,1014.22,1040.00,214,25.77,2.32,-27,1
1579484923,2020-01-20 02:48,21.79,1014.23,1040.01,214,25.77,2.34,-24,1
1579484983,2020-01-20 02:49,21.79,1014.26,1040.04,214,25.76,2.33,-26,1
1579485044,2020-01-20 02:50,22.05,1014.29,1040.07,214,25.77,2.50,-25,1
1579485104,2020-01-20 02:51,21.90,1014.32,1040.10,214,25.77,2.41,-25,1
1579485164,2020-01-20 02:52,21.78,1014.33,1040.11,214,25.77,2.33,-25,1
1579485225,2020-01-20 02:53,21.77,1014.33,1040.11,214,25.77,2.32,-26,1
1579485285,2020-01-20 02:54,21.77,1014.37,1040.15,214,25.77,2.32,-27,1
1579485345,2020-01-20 02:55,21.78,1014.37,1040.15,214,25.78,2.34,-26,1
1579485405,2020-01-20 02:56,21.77,1014.38,1040.16,214,25.76,2.31,-24,1
1579485466,2020-01-20 02:57,21.61,1014.40,1040.18,214,25.76,2.21,-25,1
1579485526,2020-01-20 02:58,21.74,1014.43,1040.21,214,25.77,2.30,-26,1
1579485586,2020-01-20 02:59,21.76,1014.40,1040.18,214,25.77,2.31,-26,1
1579485646,2020-01-20 03:00,21.75,1014.40,1040.19,214,25.77,2.31,-26,1
1579485707,2020-01-20 03:01,21.78,1014.43,1040.21,214,25.77,2.33,-26,1
1579485767,2020-01-20 03:02,21.78,1014.45,1040.23,214,25.77,2.33,-27,1
1579485827,2020-01-20 03:03,21.77,1014.45,1040.23,214,25.76,2.31,-27,1
1579485887,2020-01-20 03:04,21.76,1014.46,1040.24,214,25.77,2.31,-26,1
1579485948,2020-01-20 03:05,21.77,1014.47,1040.25,214,25.77,2.32,-26,1
1579486008,2020-01-20 03:06,21.75,1014.49,1040.27,214,25.77,2.31,-26,1
1579486068,2020-01-20 03:07,21.74,1014.50,1040.29,214,25.76,2.29,-24,1
1579486129,2020-01-20 03:08,21.77,1014.55,1040.34,214,25.77,2.32,-28,1
1579486189,2020-01-20 03:09,21.77,1014.54,1040.33,214,25.78,2.33,-26,1
1579486249,2020-01-20 03:10,22.06,1014.55,1040.33,214,25.78,2.51,-27,1
1579486309,2020-01-20 03:11,21.75,1014.57,1040.35,214,25.77,2.31,-25,1
1579486370,2020-01-20 03:12,21.76,1014.58,1040.36,214,25.77,2.31,-26,1
1579486430,2020-01-20 03:13,21.73,1014.59,1040.37,214,25.78,2.30,-25,1
1579486490,2020-01-20 03:14,21.65,1014.57,1040.35,214,25.77,2.24,-25,1
1579486550,2020-01-20 03:15,21.60,1014.57,1040.35,214,25.78,2.22,-25,1
1579486611,2020-01-20 03:16,21.74,1014.59,1040.37,214,25.78,2.31,-26,1
1579486671,2020-01-20 03:17,21.73,1014.58,1040.36,214,25.78,2.30,-24,1
1579486731,2020-01-20 03:18,21.75,1014.61,1040.39,214,25.77,2.31,-26,1
1579486792,2020-01-20 03:19,21.73,1014.61,1040.39,214,25.78,2.30,-26,1
1579486852,2020-01-20 03:20,21.73,1014.63,1040.42,214,25.76,2.28,-25,1
1579486912,2020-01-20 03:21,21.75,1014.63,1040.41,214,25.78,2.32,-27,1
1579486972,2020-01-20 03:22,21.74,1014.64,1040.42,214,25.78,2.31,-27,1
1579487033,2020-01-20 03:23,21.72,1014.60,1040.39,214,25.78,2.29,-27,1
1579487093,2020-01-20 03:24,21.53,1014.63,1040.42,214,25.78,2.17,-26,1
1579487153,2020-01-20 03:25,21.72,1014.62,1040.40,214,25.79,2.30,-26,1
1579487214,2020-01-20 03:26,21.73,1014.63,1040.41,214,25.77,2.29,-26,1
1579487274,2020-01-20 03:27,21.73,1014.62,1040.41,214,25.78,2.30,-26,1
1579487334,2020-01-20 03:28,21.73,1014.69,1040.47,214,25.78,2.30,-26,1
1579487394,2020-01-20 03:29,21.72,1014.68,1040.46,214,25.78,2.29,-25,1
1579487455,2020-01-20 03:30,21.71,1014.67,1040.45,214,25.77,2.28,-24,1
1579487515,2020-01-20 03:31,21.72,1014.66,1040.44,214,25.78,2.29,-26,1
1579487575,2020-01-20 03:32,21.71,1014.70,1040.48,214,25.78,2.29,-28,1
1579487635,2020-01-20 03:33,21.69,1014.71,1040.50,214,25.78,2.28,-25,1
1579487696,2020-01-20 03:34,21.71,1014.68,1040.47,214,25.78,2.29,-25,1
1579487756,2020-01-20 03:35,21.72,1014.67,1040.45,214,25.79,2.30,-26,1
1579487816,2020-01-20 03:36,21.72,1014.65,1040.43,214,25.78,2.29,-26,1
1579487877,2020-01-20 03:37,21.73,1014.67,1040.45,214,25.78,2.30,-26,1
1579487937,2020-01-20 03:38,21.72,1014.65,1040.43,214,25.79,2.30,-26,1
1579487997,2020-01-20 03:39,21.55,1014.68,1040.46,214,25.78,2.19,-27,1
1579488057,2020-01-20 03:40,21.73,1014.69,1040.47,214,25.78,2.30,-26,1
1579488118,2020-01-20 03:41,21.71,1014.69,1040.47,214,25.77,2.28,-27,1
1579488178,2020-01-20 03:42,21.72,1014.72,1040.51,214,25.79,2.30,-27,1
1579488238,2020-01-20 03:43,21.72,1014.74,1040.52,214,25.79,2.30,-27,1
1579488299,2020-01-20 03:44,21.71,1014.72,1040.50,214,25.78,2.29,-27,1
1579488359,2020-01-20 03:45,21.71,1014.73,1040.52,214,25.79,2.30,-27,1
1579488419,2020-01-20 03:46,21.68,1014.78,1040.56,214,25.79,2.28,-27,1
1579488479,2020-01-20 03:47,21.70,1014.73,1040.52,214,25.79,2.29,-24,1
1579488540,2020-01-20 03:49,21.71,1014.80,1040.58,214,25.80,2.30,-26,1
1579488600,2020-01-20 03:50,21.76,1014.78,1040.56,214,25.79,2.33,-25,1
1579488660,2020-01-20 03:51,21.71,1014.83,1040.61,214,25.79,2.30,-27,1
1579488721,2020-01-20 03:52,21.70,1014.81,1040.59,214,25.80,2.30,-28,1
1579488781,2020-01-20 03:53,21.70,1014.81,1040.59,214,25.79,2.29,-26,1
1579488841,2020-01-20 03:54,21.98,1014.82,1040.60,214,25.79,2.47,-28,1
1579488901,2020-01-20 03:55,21.68,1014.82,1040.60,214,25.80,2.29,-27,1
1579488962,2020-01-20 03:56,21.68,1014.87,1040.65,214,25.79,2.28,-27,1
1579489022,2020-01-20 03:57,21.66,1014.87,1040.66,214,25.80,2.28,-27,1
1579489082,2020-01-20 03:58,21.68,1014.88,1040.66,214,25.79,2.28,-27,1
1579489143,2020-01-20 03:59,21.70,1014.87,1040.66,214,25.79,2.29,-25,1
1579489203,2020-01-20 04:00,21.70,1014.90,1040.68,214,25.80,2.30,-27,1
1579489263,2020-01-20 04:01,21.68,1014.93,1040.72,214,25.80,2.29,-26,1
1579489323,2020-01-20 04:02,21.67,1014.94,1040.72,214,25.79,2.27,-24,1
1579489384,2020-01-20 04:03,21.66,1014.95,1040.74,214,25.79,2.27,-26,1
1579489444,2020-01-20 04:04,21.62,1014.95,1040.73,214,25.79,2.24,-28,1
1579489504,2020-01-20 04:05,21.63,1014.96,1040.75,214,25.79,2.25,-26,1
1579489565,2020-01-20 04:06,21.66,1014.94,1040.73,214,25.78,2.26,-26,1
1579489625,2020-01-20 04:07,21.66,1014.99,1040.78,214,25.79,2.27,-26,1
1579489685,2020-01-20 04:08,21.67,1015.01,1040.79,214,25.79,2.27,-27,1
1579489745,2020-01-20 04:09,21.67,1015.02,1040.80,214,25.79,2.27,-26,1
1579489806,2020-01-20 04:10,21.66,1015.06,1040.85,214,25.79,2.27,-26,1
1579489866,2020-01-20 04:11,21.67,1015.06,1040.84,214,25.79,2.27,-27,1
1579489926,2020-01-20 04:12,21.65,1015.08,1040.86,214,25.78,2.25,-26,1
1579489986,2020-01-20 04:13,21.34,1015.11,1040.89,214,25.79,2.06,-26,1
1579490047,2020-01-20 04:14,21.65,1015.08,1040.86,214,25.78,2.25,-27,1
1579490107,2020-01-20 04:15,21.53,1015.12,1040.91,214,25.78,2.17,-26,1
1579490167,2020-01-20 04:16,21.64,1015.12,1040.91,214,25.79,2.25,-26,1
1579490228,2020-01-20 04:17,21.62,1015.10,1040.88,214,25.78,2.23,-27,1
1579490288,2020-01-20 04:18,21.64,1015.09,1040.87,214,25.78,2.24,-25,1
1579490348,2020-01-20 04:19,21.65,1015.10,1040.88,214,25.78,2.25,-26,1
1579490408,2020-01-20 04:20,21.64,1015.08,1040.86,214,25.78,2.24,-28,1
1579490469,2020-01-20 04:21,21.66,1015.08,1040.86,214,25.78,2.26,-26,1
1579490529,2020-01-20 04:22,21.63,1015.08,1040.86,214,25.78,2.24,-23,1
1579490589,2020-01-20 04:23,21.64,1015.08,1040.86,214,25.78,2.24,-25,1
1579490650,2020-01-20 04:24,21.51,1015.10,1040.89,214,25.78,2.16,-27,1
1579490710,2020-01-20 04:25,21.61,1015.10,1040.88,214,25.78,2.22,-27,1
1579490770,2020-01-20 04:26,21.63,1015.13,1040.91,214,25.79,2.25,-24,1
1579490830,2020-01-20 04:27,21.65,1015.16,1040.95,214,25.78,2.25,-27,1
1579490891,2020-01-20 04:28,21.65,1015.12,1040.91,214,25.77,2.24,-26,1
1579490951,2020-01-20 04:29,21.64,1015.17,1040.96,214,25.78,2.24,-21,1
1579491011,2020-01-20 04:30,21.64,1015.17,1040.95,214,25.78,2.24,-28,1
1579491071,2020-01-20 04:31,21.65,1015.17,1040.96,214,25.77,2.24,-27,1
1579491132,2020-01-20 04:32,21.64,1015.18,1040.96,214,25.78,2.24,-27,1
1579491192,2020-01-20 04:33,21.63,1015.17,1040.96,214,25.77,2.23,-26,1
1579491252,2020-01-20 04:34,21.63,1015.16,1040.94,214,25.77,2.23,-25,1
1579491313,2020-01-20 04:35,21.64,1015.20,1040.98,214,25.78,2.24,-27,1
1579491373,2020-01-20 04:36,21.62,1015.19,1040.97,214,25.77,2.22,-26,1
1579491433,2020-01-20 04:37,21.63,1015.21,1040.99,214,25.77,2.23,-27,1
1579491494,2020-01-20 04:38,21.63,1015.19,1040.97,214,25.78,2.24,-26,1
1579491554,2020-01-20 04:39,21.64,1015.17,1040.95,214,25.77,2.24,-22,1
1579491614,2020-01-20 04:40,21.65,1015.20,1040.99,214,25.77,2.24,-26,1
1579491674,2020-01-20 04:41,21.64,1015.21,1040.99,214,25.77,2.24,-27,1
1579491735,2020-01-20 04:42,21.63,1015.19,1040.98,214,25.77,2.23,-25,1
1579491795,2020-01-20 04:43,21.62,1015.21,1040.99,214,25.77,2.22,-26,1
1579491855,2020-01-20 04:44,21.64,1015.23,1041.01,214,25.77,2.24,-24,1
1579491916,2020-01-20 04:45,21.62,1015.25,1041.03,214,25.76,2.21,-26,1
1579491976,2020-01-20 04:46,21.62,1015.24,1041.02,214,25.76,2.21,-26,1
1579492036,2020-01-20 04:47,21.48,1015.23,1041.02,214,25.76,2.13,-25,1
1579492096,2020-01-20 04:48,21.62,1015.28,1041.06,214,25.76,2.21,-26,1
1579492157,2020-01-20 04:49,21.62,1015.28,1041.07,214,25.76,2.21,-27,1
1579492217,2020-01-20 04:50,21.62,1015.29,1041.07,214,25.76,2.21,-26,1
1579492277,2020-01-20 04:51,21.59,1015.29,1041.07,214,25.76,2.20,-26,1
1579492337,2020-01-20 04:52,21.83,1015.27,1041.05,214,25.76,2.35,-26,1
1579492398,2020-01-20 04:53,21.61,1015.30,1041.08,214,25.75,2.20,-22,1
1579492458,2020-01-20 04:54,21.85,1015.34,1041.12,214,25.76,2.36,-27,1
1579492518,2020-01-20 04:55,21.61,1015.36,1041.14,214,25.76,2.21,-26,1
1579492579,2020-01-20 04:56,21.63,1015.37,1041.15,214,25.75,2.21,-26,1
1579492639,2020-01-20 04:57,21.57,1015.39,1041.17,214,25.75,2.18,-26,1
1579492699,2020-01-20 04:58,21.59,1015.43,1041.21,214,25.75,2.19,-24,1
1579492759,2020-01-20 04:59,21.62,1015.41,1041.20,214,25.75,2.20,-26,1
1579492820,2020-01-20 05:00,21.64,1015.45,1041.23,214,25.75,2.22,-26,1
1579492880,2020-01-20 05:01,21.64,1015.42,1041.21,214,25.75,2.22,-25,1
1579492940,2020-01-20 05:02,21.59,1015.43,1041.22,214,25.75,2.19,-25,1
1579493001,2020-01-20 05:03,21.62,1015.45,1041.23,214,25.75,2.20,-24,1
1579493061,2020-01-20 05:04,21.63,1015.47,1041.25,214,25.75,2.21,-27,1
1579493121,2020-01-20 05:05,21.62,1015.45,1041.23,214,25.74,2.20,-26,1
1579493181,2020-01-20 05:06,21.63,1015.46,1041.25,214,25.75,2.21,-26,1
1579493242,2020-01-20 05:07,21.58,1015.53,1041.31,214,25.74,2.17,-25,1
1579493302,2020-01-20 05:08,21.59,1015.55,1041.34,214,25.74,2.18,-26,1
1579493362,2020-01-20 05:09,21.57,1015.57,1041.35,214,25.75,2.18,-26,1
1579493423,2020-01-20 05:10,21.84,1015.59,1041.37,214,25.75,2.35,-27,1
1579493483,2020-01-20 05:11,21.61,1015.62,1041.40,214,25.75,2.20,-26,1
1579493543,2020-01-20 05:12,21.59,1015.60,1041.38,214,25.75,2.19,-26,1
1579493603,2020-01-20 05:13,21.59,1015.62,1041.40,214,25.75,2.19,-26,1
1579493664,2020-01-20 05:14,21.61,1015.63,1041.41,214,25.75,2.20,-25,1
1579493724,2020-01-20 05:15,21.57,1015.64,1041.42,214,25.73,2.16,-24,1
1579493784,2020-01-20 05:16,21.59,1015.63,1041.41,214,25.75,2.19,-26,1
1579493845,2020-01-20 05:17,21.62,1015.61,1041.39,214,25.75,2.20,-26,1
1579493905,2020-01-20 05:18,21.58,1015.65,1041.44,214,25.75,2.18,-27,1
1579493965,2020-01-20 05:19,21.57,1015.64,1041.42,214,25.74,2.17,-25,1
1579494025,2020-01-20 05:20,21.56,1015.63,1041.42,214,25.74,2.16,-27,1
1579494086,2020-01-20 05:21,21.56,1015.65,1041.44,214,25.74,2.16,-26,1
1579494146,2020-01-20 05:22,21.56,1015.65,1041.44,214,25.75,2.17,-26,1
1579494206,2020-01-20 05:23,21.58,1015.67,1041.45,214,25.74,2.17,-27,1
1579494266,2020-01-20 05:24,21.56,1015.71,1041.49,214,25.74,2.16,-24,1
1579494327,2020-01-20 05:25,21.55,1015.76,1041.55,214,25.73,2.14,-26,1
1579494387,2020-01-20 05:26,21.46,1015.74,1041.53,214,25.74,2.10,-26,1
1579494447,2020-01-20 05:27,21.57,1015.78,1041.56,214,25.74,2.17,-26,1
1579494507,2020-01-20 05:28,21.56,1015.82,1041.60,214,25.75,2.17,-26,1
1579494568,2020-01-20 05:29,21.57,1015.87,1041.65,214,25.75,2.18,-24,1
1579494628,2020-01-20 05:30,21.57,1015.86,1041.64,214,25.74,2.17,-24,1
1579494688,2020-01-20 05:31,21.55,1015.92,1041.70,214,25.74,2.15,-25,1
1579494749,2020-01-20 05:32,21.53,1015.97,1041.75,214,25.75,2.15,-24,1
1579494809,2020-01-20 05:33,21.54,1015.96,1041.75,214,25.75,2.15,-25,1
1579494869,2020-01-20 05:34,21.54,1016.03,1041.81,214,25.75,2.15,-27,1
1579494929,2020-01-20 05:35,21.55,1016.04,1041.83,214,25.76,2.17,-25,1
1579494990,2020-01-20 05:36,21.56,1016.05,1041.83,214,25.76,2.18,-27,1
1579495050,2020-01-20 05:37,21.55,1016.07,1041.85,214,25.77,2.18,-25,1
1579495110,2020-01-20 05:38,21.54,1016.07,1041.86,214,25.77,2.17,-27,1
1579495171,2020-01-20 05:39,21.53,1016.08,1041.87,214,25.77,2.16,-27,1
1579495231,2020-01-20 05:40,21.54,1016.06,1041.84,214,25.77,2.17,-27,1